Location: Newark
(52.2090°N, 4.1550°W)
Time: 23:00:14
(UTC+00:00)

Courier 1B Rocket - Pass Details

Date: 28 September 2019
Orbit: 920 x 1202 km, 28.2° (Epoch: 16 October)

Event Time Altitude Azimuth Distance (km) Brightness Sun altitude
Rises 14:10:09 0° 225° (SW) 4,092 9.4 29.9°
Maximum altitude 14:17:29 10° 180° (S) 3,097 8.5 29.2°
Drops below altitude 10° 14:17:32 10° 180° (S) 3,097 8.5 29.2°
Sets 14:24:40 0° 135° (SE) 3,986 8.3 28.5°
